Year,Month,Day,Hour,Minute,Value (Times are PST for temperature in C)
2015,08,01,00,00,18.40
2015,08,01,00,01,18.50
2015,08,01,00,02,18.50
2015,08,01,00,03,18.50
2015,08,01,00,04,18.50
2015,08,01,00,05,18.50
2015,08,01,00,06,18.60
2015,08,01,00,07,18.60
2015,08,01,00,08,18.60
2015,08,01,00,09,18.60
2015,08,01,00,10,18.50
2015,08,01,00,11,18.50
2015,08,01,00,12,18.50
2015,08,01,00,13,18.50
2015,08,01,00,14,18.40
2015,08,01,00,15,18.40
2015,08,01,00,16,18.40
2015,08,01,00,17,18.40
2015,08,01,00,18,18.40
2015,08,01,00,19,18.30
2015,08,01,00,20,18.30
2015,08,01,00,21,18.30
2015,08,01,00,22,18.30
2015,08,01,00,23,18.30
2015,08,01,00,24,18.30
2015,08,01,00,25,18.20
2015,08,01,00,26,18.20
2015,08,01,00,27,18.20
2015,08,01,00,28,18.20
2015,08,01,00,29,18.20
2015,08,01,00,30,18.10
2015,08,01,00,31,18.10
2015,08,01,00,32,18.10
2015,08,01,00,33,18.10
2015,08,01,00,34,18.10
2015,08,01,00,35,18.00
2015,08,01,00,36,18.00
2015,08,01,00,37,18.00
2015,08,01,00,38,18.00
2015,08,01,00,39,18.00
2015,08,01,00,40,18.00
2015,08,01,00,41,18.00
2015,08,01,00,42,18.00
2015,08,01,00,43,18.00
2015,08,01,00,44,18.00
2015,08,01,00,45,18.00
2015,08,01,00,46,18.00
2015,08,01,00,47,18.00
2015,08,01,00,48,18.00
2015,08,01,00,49,18.00
2015,08,01,00,50,18.00
2015,08,01,00,51,18.10
2015,08,01,00,52,18.10
2015,08,01,00,53,18.10
2015,08,01,00,54,18.10
2015,08,01,00,55,18.10
2015,08,01,00,56,18.10
2015,08,01,00,57,18.10
2015,08,01,00,58,18.10
2015,08,01,00,59,18.10
2015,08,01,01,00,18.00
2015,08,01,01,01,18.00
2015,08,01,01,02,17.90
2015,08,01,01,03,17.90
2015,08,01,01,04,17.90
2015,08,01,01,05,17.90
2015,08,01,01,06,17.90
2015,08,01,01,07,17.90
2015,08,01,01,08,17.90
2015,08,01,01,09,17.90
2015,08,01,01,10,17.90
2015,08,01,01,11,17.80
2015,08,01,01,12,17.80
2015,08,01,01,13,17.70
2015,08,01,01,14,17.70
2015,08,01,01,15,17.60
2015,08,01,01,16,17.60
2015,08,01,01,17,17.50
2015,08,01,01,18,17.50
2015,08,01,01,19,17.50
2015,08,01,01,20,17.40
2015,08,01,01,21,17.40
2015,08,01,01,22,17.40
2015,08,01,01,23,17.40
2015,08,01,01,24,17.40
2015,08,01,01,25,17.40
2015,08,01,01,26,17.40
2015,08,01,01,27,17.40
2015,08,01,01,28,17.40
2015,08,01,01,29,17.40
2015,08,01,01,30,17.30
2015,08,01,01,31,17.30
2015,08,01,01,32,17.30
2015,08,01,01,33,17.30
2015,08,01,01,34,17.30
2015,08,01,01,35,17.30
2015,08,01,01,36,17.30
2015,08,01,01,37,17.30
2015,08,01,01,38,17.30
2015,08,01,01,39,17.30
2015,08,01,01,40,17.30
2015,08,01,01,41,17.30
2015,08,01,01,42,17.30
2015,08,01,01,43,17.30
2015,08,01,01,44,17.40
2015,08,01,01,45,17.40
2015,08,01,01,46,17.40
2015,08,01,01,47,17.40
2015,08,01,01,48,17.40
2015,08,01,01,49,17.50
2015,08,01,01,50,17.50
2015,08,01,01,51,17.50
2015,08,01,01,52,17.60
2015,08,01,01,53,17.60
2015,08,01,01,54,17.60
2015,08,01,01,55,17.60
2015,08,01,01,56,17.70
2015,08,01,01,57,17.70
2015,08,01,01,58,17.70
2015,08,01,01,59,17.60
2015,08,01,02,00,17.60
2015,08,01,02,01,17.60
2015,08,01,02,02,17.50
2015,08,01,02,03,17.50
2015,08,01,02,04,17.40
2015,08,01,02,05,17.30
2015,08,01,02,06,17.20
2015,08,01,02,07,17.10
2015,08,01,02,08,17.00
2015,08,01,02,09,16.90
2015,08,01,02,10,16.80
2015,08,01,02,11,16.70
2015,08,01,02,12,16.60
2015,08,01,02,13,16.50
2015,08,01,02,14,16.40
2015,08,01,02,15,16.30
2015,08,01,02,16,16.30
2015,08,01,02,17,16.30
2015,08,01,02,18,16.20
2015,08,01,02,19,16.20
2015,08,01,02,20,16.10
2015,08,01,02,21,16.10
2015,08,01,02,22,16.10
2015,08,01,02,23,16.10
2015,08,01,02,24,16.00
2015,08,01,02,25,16.00
2015,08,01,02,26,16.00
2015,08,01,02,27,15.90
2015,08,01,02,28,15.90
2015,08,01,02,29,15.90
2015,08,01,02,30,15.90
2015,08,01,02,31,15.90
2015,08,01,02,32,15.90
2015,08,01,02,33,15.90
2015,08,01,02,34,15.90
2015,08,01,02,35,15.90
2015,08,01,02,36,15.90
2015,08,01,02,37,15.90
2015,08,01,02,38,15.90
2015,08,01,02,39,15.90
2015,08,01,02,40,15.90
2015,08,01,02,41,15.90
2015,08,01,02,42,15.90
2015,08,01,02,43,15.90
2015,08,01,02,44,15.90
2015,08,01,02,45,15.90
2015,08,01,02,46,15.90
2015,08,01,02,47,15.90
2015,08,01,02,48,15.90
2015,08,01,02,49,15.90
2015,08,01,02,50,15.90
2015,08,01,02,51,16.00
2015,08,01,02,52,16.00
2015,08,01,02,53,16.00
2015,08,01,02,54,16.00
2015,08,01,02,55,16.00
2015,08,01,02,56,16.00
2015,08,01,02,57,16.00
2015,08,01,02,58,16.00
2015,08,01,02,59,16.10
2015,08,01,03,00,16.10
2015,08,01,03,01,16.10
2015,08,01,03,02,16.10
2015,08,01,03,03,16.10
2015,08,01,03,04,16.10
2015,08,01,03,05,16.10
2015,08,01,03,06,16.10
2015,08,01,03,07,16.10
2015,08,01,03,08,16.10
2015,08,01,03,09,16.10
2015,08,01,03,10,16.20
2015,08,01,03,11,16.20
2015,08,01,03,12,16.20
2015,08,01,03,13,16.20
2015,08,01,03,14,16.20
2015,08,01,03,15,16.20
2015,08,01,03,16,16.20
2015,08,01,03,17,16.20
2015,08,01,03,18,16.20
2015,08,01,03,19,16.20
2015,08,01,03,20,16.30
2015,08,01,03,21,16.30
2015,08,01,03,22,16.30
2015,08,01,03,23,16.30
2015,08,01,03,24,16.30
2015,08,01,03,25,16.30
2015,08,01,03,26,16.40
2015,08,01,03,27,16.40
2015,08,01,03,28,16.40
2015,08,01,03,29,16.40
2015,08,01,03,30,16.40
2015,08,01,03,31,16.40
2015,08,01,03,32,16.40
2015,08,01,03,33,16.40
2015,08,01,03,34,16.40
2015,08,01,03,35,16.40
2015,08,01,03,36,16.40
2015,08,01,03,37,16.50
2015,08,01,03,38,16.50
2015,08,01,03,39,16.50
2015,08,01,03,40,16.50
2015,08,01,03,41,16.50
2015,08,01,03,42,16.40
2015,08,01,03,43,16.40
2015,08,01,03,44,16.40
2015,08,01,03,45,16.30
2015,08,01,03,46,16.30
2015,08,01,03,47,16.20
2015,08,01,03,48,16.10
2015,08,01,03,49,15.90
2015,08,01,03,50,15.80
2015,08,01,03,51,15.60
2015,08,01,03,52,15.50
2015,08,01,03,53,15.30
2015,08,01,03,54,15.10
2015,08,01,03,55,15.00
2015,08,01,03,56,14.90
2015,08,01,03,57,14.70
2015,08,01,03,58,14.60
2015,08,01,03,59,14.50
2015,08,01,04,00,14.30
2015,08,01,04,01,14.20
2015,08,01,04,02,14.10
2015,08,01,04,03,14.00
2015,08,01,04,04,14.00
2015,08,01,04,05,13.90
2015,08,01,04,06,13.80
2015,08,01,04,07,13.80
2015,08,01,04,08,13.70
2015,08,01,04,09,13.70
2015,08,01,04,10,13.70
2015,08,01,04,11,13.70
2015,08,01,04,12,13.60
2015,08,01,04,13,13.60
2015,08,01,04,14,13.60
2015,08,01,04,15,13.60
2015,08,01,04,16,13.60
2015,08,01,04,17,13.60
2015,08,01,04,18,13.60
2015,08,01,04,19,13.60
2015,08,01,04,20,13.60
2015,08,01,04,21,13.60
2015,08,01,04,22,13.60
2015,08,01,04,23,13.60
2015,08,01,04,24,13.60
2015,08,01,04,25,13.60
2015,08,01,04,26,13.60
2015,08,01,04,27,13.60
2015,08,01,04,28,13.60
2015,08,01,04,29,13.60
2015,08,01,04,30,13.60
2015,08,01,04,31,13.60
2015,08,01,04,32,13.60
2015,08,01,04,33,13.60
2015,08,01,04,34,13.60
2015,08,01,04,35,13.50
2015,08,01,04,36,13.50
2015,08,01,04,37,13.50
2015,08,01,04,38,13.50
2015,08,01,04,39,13.50
2015,08,01,04,40,13.50
2015,08,01,04,41,13.50
2015,08,01,04,42,13.50
2015,08,01,04,43,13.50
2015,08,01,04,44,13.50
2015,08,01,04,45,13.50
2015,08,01,04,46,13.50
2015,08,01,04,47,13.50
2015,08,01,04,48,13.50
2015,08,01,04,49,13.50
2015,08,01,04,50,13.50
2015,08,01,04,51,13.50
2015,08,01,04,52,13.50
2015,08,01,04,53,13.50
2015,08,01,04,54,13.50
2015,08,01,04,55,13.60
2015,08,01,04,56,13.60
2015,08,01,04,57,13.60
2015,08,01,04,58,13.60
2015,08,01,04,59,13.60
2015,08,01,05,00,13.70
2015,08,01,05,01,13.70
2015,08,01,05,02,13.70
2015,08,01,05,03,13.80
2015,08,01,05,04,13.80
2015,08,01,05,05,13.80
2015,08,01,05,06,13.80
2015,08,01,05,07,13.90
2015,08,01,05,08,13.90
2015,08,01,05,09,14.00
2015,08,01,05,10,14.00
2015,08,01,05,11,14.10
2015,08,01,05,12,14.10
2015,08,01,05,13,14.10
2015,08,01,05,14,14.20
2015,08,01,05,15,14.20
2015,08,01,05,16,14.20
2015,08,01,05,17,14.20
2015,08,01,05,18,14.20
2015,08,01,05,19,14.20
2015,08,01,05,20,14.20
2015,08,01,05,21,14.20
2015,08,01,05,22,14.20
2015,08,01,05,23,14.30
2015,08,01,05,24,14.30
2015,08,01,05,25,14.30
2015,08,01,05,26,14.30
2015,08,01,05,27,14.30
2015,08,01,05,28,14.30
2015,08,01,05,29,14.40
2015,08,01,05,30,14.40
2015,08,01,05,31,14.40
2015,08,01,05,32,14.40
2015,08,01,05,33,14.40
2015,08,01,05,34,14.40
2015,08,01,05,35,14.40
2015,08,01,05,36,14.50
2015,08,01,05,37,14.50
2015,08,01,05,38,14.50
2015,08,01,05,39,14.60
2015,08,01,05,40,14.60
2015,08,01,05,41,14.60
2015,08,01,05,42,14.60
2015,08,01,05,43,14.60
2015,08,01,05,44,14.60
2015,08,01,05,45,14.60
2015,08,01,05,46,14.60
2015,08,01,05,47,14.70
2015,08,01,05,48,14.70
2015,08,01,05,49,14.70
2015,08,01,05,50,14.70
2015,08,01,05,51,14.70
2015,08,01,05,52,14.70
2015,08,01,05,53,14.70
2015,08,01,05,54,14.70
2015,08,01,05,55,14.70
2015,08,01,05,56,14.70
2015,08,01,05,57,14.70
2015,08,01,05,58,14.70
2015,08,01,05,59,14.80
2015,08,01,06,00,14.80
2015,08,01,06,01,14.80
2015,08,01,06,02,14.80
2015,08,01,06,03,14.80
2015,08,01,06,04,14.80
2015,08,01,06,05,14.80
2015,08,01,06,06,14.80
2015,08,01,06,07,14.80
2015,08,01,06,08,14.80
2015,08,01,06,09,14.80
2015,08,01,06,10,14.80
2015,08,01,06,11,14.90
2015,08,01,06,12,14.90
2015,08,01,06,13,14.90
2015,08,01,06,14,14.90
2015,08,01,06,15,15.00
2015,08,01,06,16,15.00
2015,08,01,06,17,15.00
2015,08,01,06,18,15.10
2015,08,01,06,19,15.10
2015,08,01,06,20,15.10
2015,08,01,06,21,15.20
2015,08,01,06,22,15.20
2015,08,01,06,23,15.20
2015,08,01,06,24,15.30
2015,08,01,06,25,15.30
2015,08,01,06,26,15.30
2015,08,01,06,27,15.30
2015,08,01,06,28,15.40
2015,08,01,06,29,15.40
2015,08,01,06,30,15.40
2015,08,01,06,31,15.50
2015,08,01,06,32,15.60
2015,08,01,06,33,15.60
2015,08,01,06,34,15.70
2015,08,01,06,35,15.70
2015,08,01,06,36,15.80
2015,08,01,06,37,15.80
2015,08,01,06,38,15.90
2015,08,01,06,39,16.00
2015,08,01,06,40,16.10
2015,08,01,06,41,16.10
2015,08,01,06,42,16.10
2015,08,01,06,43,16.00
2015,08,01,06,44,16.00
2015,08,01,06,45,16.00
2015,08,01,06,46,15.90
2015,08,01,06,47,15.90
2015,08,01,06,48,15.90
2015,08,01,06,49,15.90
2015,08,01,06,50,15.90
2015,08,01,06,51,15.80
2015,08,01,06,52,15.80
2015,08,01,06,53,15.80
2015,08,01,06,54,15.80
2015,08,01,06,55,15.80
2015,08,01,06,56,15.70
2015,08,01,06,57,15.70
2015,08,01,06,58,15.70
2015,08,01,06,59,15.70
2015,08,01,07,00,15.60
2015,08,01,07,01,15.60
2015,08,01,07,02,15.60
2015,08,01,07,03,15.60
2015,08,01,07,04,15.60
2015,08,01,07,05,15.60
2015,08,01,07,06,15.70
2015,08,01,07,07,15.70
2015,08,01,07,08,15.80
2015,08,01,07,09,15.90
2015,08,01,07,10,16.00
2015,08,01,07,11,16.00
2015,08,01,07,12,16.10
2015,08,01,07,13,16.10
2015,08,01,07,14,16.20
2015,08,01,07,15,16.20
2015,08,01,07,16,16.30
2015,08,01,07,17,16.30
2015,08,01,07,18,16.40
2015,08,01,07,19,16.50
2015,08,01,07,20,16.60
2015,08,01,07,21,16.70
2015,08,01,07,22,16.70
2015,08,01,07,23,16.70
2015,08,01,07,24,16.70
2015,08,01,07,25,16.80
2015,08,01,07,26,16.80
2015,08,01,07,27,16.80
2015,08,01,07,28,16.80
2015,08,01,07,29,16.90
2015,08,01,07,30,16.90
2015,08,01,07,31,17.00
2015,08,01,07,32,17.00
2015,08,01,07,33,17.10
2015,08,01,07,34,17.10
2015,08,01,07,35,17.10
2015,08,01,07,36,17.20
2015,08,01,07,37,17.20
2015,08,01,07,38,17.20
2015,08,01,07,39,17.30
2015,08,01,07,40,17.30
2015,08,01,07,41,17.30
2015,08,01,07,42,17.40
2015,08,01,07,43,17.40
2015,08,01,07,44,17.50
2015,08,01,07,45,17.50
2015,08,01,07,46,17.60
2015,08,01,07,47,17.70
2015,08,01,07,48,17.70
2015,08,01,07,49,17.80
2015,08,01,07,50,17.80
2015,08,01,07,51,17.80
2015,08,01,07,52,17.80
2015,08,01,07,53,17.90
2015,08,01,07,54,17.90
2015,08,01,07,55,17.90
2015,08,01,07,56,18.00
2015,08,01,07,57,18.10
2015,08,01,07,58,18.10
2015,08,01,07,59,18.20
2015,08,01,08,00,18.30
2015,08,01,08,01,18.40
2015,08,01,08,02,18.60
2015,08,01,08,03,18.70
2015,08,01,08,04,18.80
2015,08,01,08,05,18.90
2015,08,01,08,06,19.00
2015,08,01,08,07,19.10
2015,08,01,08,08,19.10
2015,08,01,08,09,19.20
2015,08,01,08,10,19.30
2015,08,01,08,11,19.30
2015,08,01,08,12,19.30
2015,08,01,08,13,19.40
2015,08,01,08,14,19.40
2015,08,01,08,15,19.50
2015,08,01,08,16,19.50
2015,08,01,08,17,19.60
2015,08,01,08,18,19.60
2015,08,01,08,19,19.70
2015,08,01,08,20,19.70
2015,08,01,08,21,19.70
2015,08,01,08,22,19.80
2015,08,01,08,23,19.80
2015,08,01,08,24,19.80
2015,08,01,08,25,19.80
2015,08,01,08,26,19.90
2015,08,01,08,27,19.90
2015,08,01,08,28,19.90
2015,08,01,08,29,19.90
2015,08,01,08,30,19.90
2015,08,01,08,31,19.90
2015,08,01,08,32,19.90
2015,08,01,08,33,19.90
2015,08,01,08,34,20.00
2015,08,01,08,35,20.00
2015,08,01,08,36,20.10
2015,08,01,08,37,20.10
2015,08,01,08,38,20.10
2015,08,01,08,39,20.10
2015,08,01,08,40,20.10
2015,08,01,08,41,20.10
2015,08,01,08,42,20.20
2015,08,01,08,43,20.20
2015,08,01,08,44,20.20
2015,08,01,08,45,20.20
2015,08,01,08,46,20.20
2015,08,01,08,47,20.20
2015,08,01,08,48,20.20
2015,08,01,08,49,20.30
2015,08,01,08,50,20.30
2015,08,01,08,51,20.40
2015,08,01,08,52,20.40
2015,08,01,08,53,20.50
2015,08,01,08,54,20.50
2015,08,01,08,55,20.60
2015,08,01,08,56,20.60
2015,08,01,08,57,20.60
2015,08,01,08,58,20.70
2015,08,01,08,59,20.70
2015,08,01,09,00,20.70
2015,08,01,09,01,20.60
2015,08,01,09,02,20.60
2015,08,01,09,03,20.50
2015,08,01,09,04,20.40
2015,08,01,09,05,20.40
2015,08,01,09,06,20.40
2015,08,01,09,07,20.30
2015,08,01,09,08,20.40
2015,08,01,09,09,20.40
2015,08,01,09,10,20.40
2015,08,01,09,11,20.40
2015,08,01,09,12,20.40
2015,08,01,09,13,20.40
2015,08,01,09,14,20.40
2015,08,01,09,15,20.40
2015,08,01,09,16,20.40
2015,08,01,09,17,20.40
2015,08,01,09,18,20.40
2015,08,01,09,19,20.40
2015,08,01,09,20,20.40
2015,08,01,09,21,20.40
2015,08,01,09,22,20.40
2015,08,01,09,23,20.40
2015,08,01,09,24,20.40
2015,08,01,09,25,20.40
2015,08,01,09,26,20.50
2015,08,01,09,27,20.50
2015,08,01,09,28,20.60
2015,08,01,09,29,20.60
2015,08,01,09,30,20.70
2015,08,01,09,31,20.70
2015,08,01,09,32,20.80
2015,08,01,09,33,20.80
2015,08,01,09,34,20.90
2015,08,01,09,35,20.90
2015,08,01,09,36,21.00
2015,08,01,09,37,21.00
2015,08,01,09,38,21.10
2015,08,01,09,39,21.20
2015,08,01,09,40,21.20
2015,08,01,09,41,21.20
2015,08,01,09,42,21.20
2015,08,01,09,43,21.10
2015,08,01,09,44,21.00
2015,08,01,09,45,20.90
2015,08,01,09,46,20.80
2015,08,01,09,47,20.70
2015,08,01,09,48,20.70
2015,08,01,09,49,20.70
2015,08,01,09,50,20.70
2015,08,01,09,51,20.70
2015,08,01,09,52,20.70
2015,08,01,09,53,20.60
2015,08,01,09,54,20.60
2015,08,01,09,55,20.50
2015,08,01,09,56,20.40
2015,08,01,09,57,20.20
2015,08,01,09,58,20.20
2015,08,01,09,59,20.10
2015,08,01,10,00,20.10
2015,08,01,10,01,20.10
2015,08,01,10,02,20.10
2015,08,01,10,03,20.00
2015,08,01,10,04,19.90
2015,08,01,10,05,19.80
2015,08,01,10,06,19.80
2015,08,01,10,07,19.80
2015,08,01,10,08,19.80
2015,08,01,10,09,19.80
2015,08,01,10,10,19.90
2015,08,01,10,11,19.90
2015,08,01,10,12,19.90
2015,08,01,10,13,19.90
2015,08,01,10,14,19.80
2015,08,01,10,15,19.70
2015,08,01,10,16,19.70
2015,08,01,10,17,19.60
2015,08,01,10,18,19.60
2015,08,01,10,19,19.60
2015,08,01,10,20,19.60
2015,08,01,10,21,19.60
2015,08,01,10,22,19.60
2015,08,01,10,23,19.70
2015,08,01,10,24,19.70
2015,08,01,10,25,19.70
2015,08,01,10,26,19.80
2015,08,01,10,27,19.80
2015,08,01,10,28,19.80
2015,08,01,10,29,19.90
2015,08,01,10,30,20.00
2015,08,01,10,31,20.10
2015,08,01,10,32,20.20
2015,08,01,10,33,20.20
2015,08,01,10,34,20.20
2015,08,01,10,35,20.20
2015,08,01,10,36,20.20
2015,08,01,10,37,20.30
2015,08,01,10,38,20.20
2015,08,01,10,39,20.20
2015,08,01,10,40,20.10
2015,08,01,10,41,20.00
2015,08,01,10,42,19.80
2015,08,01,10,43,19.80
2015,08,01,10,44,19.70
2015,08,01,10,45,19.70
2015,08,01,10,46,19.70
2015,08,01,10,47,19.70
2015,08,01,10,48,19.70
2015,08,01,10,49,19.70
2015,08,01,10,50,19.70
2015,08,01,10,51,19.70
2015,08,01,10,52,19.50
2015,08,01,10,53,19.40
2015,08,01,10,54,19.30
2015,08,01,10,55,19.10
2015,08,01,10,56,18.90
2015,08,01,10,57,18.60
2015,08,01,10,58,18.40
2015,08,01,10,59,18.20
2015,08,01,11,00,18.10
2015,08,01,11,01,18.00
2015,08,01,11,02,18.00
2015,08,01,11,03,17.90
2015,08,01,11,04,18.00
2015,08,01,11,05,18.00
2015,08,01,11,06,17.90
2015,08,01,11,07,17.90
2015,08,01,11,08,17.90
2015,08,01,11,09,17.80
2015,08,01,11,10,17.80
2015,08,01,11,11,17.80
2015,08,01,11,12,17.70
2015,08,01,11,13,17.70
2015,08,01,11,14,17.70
2015,08,01,11,15,17.70
2015,08,01,11,16,17.70
2015,08,01,11,17,17.80
2015,08,01,11,18,17.80
2015,08,01,11,19,17.90
2015,08,01,11,20,18.00
2015,08,01,11,21,18.10
2015,08,01,11,22,18.20
2015,08,01,11,23,18.30
2015,08,01,11,24,18.50
2015,08,01,11,25,18.60
2015,08,01,11,26,18.70
2015,08,01,11,27,18.80
2015,08,01,11,28,18.90
2015,08,01,11,29,19.00
2015,08,01,11,30,19.20
2015,08,01,11,31,19.50
2015,08,01,11,32,19.70
2015,08,01,11,33,19.80
2015,08,01,11,34,20.00
2015,08,01,11,35,20.10
2015,08,01,11,36,20.20
2015,08,01,11,37,20.30
2015,08,01,11,38,20.30
2015,08,01,11,39,20.40
2015,08,01,11,40,20.50
2015,08,01,11,41,20.60
2015,08,01,11,42,20.60
2015,08,01,11,43,20.60
2015,08,01,11,44,20.70
2015,08,01,11,45,20.70
2015,08,01,11,46,20.70
2015,08,01,11,47,20.70
2015,08,01,11,48,20.70
2015,08,01,11,49,20.70
2015,08,01,11,50,20.70
2015,08,01,11,51,20.80
2015,08,01,11,52,20.80
2015,08,01,11,53,20.80
2015,08,01,11,54,20.80
2015,08,01,11,55,20.80
2015,08,01,11,56,20.80
2015,08,01,11,57,20.80
2015,08,01,11,58,20.80
2015,08,01,11,59,20.80
2015,08,01,12,00,20.70
2015,08,01,12,01,20.70
2015,08,01,12,02,20.70
2015,08,01,12,03,20.80
2015,08,01,12,04,20.80
2015,08,01,12,05,20.90
2015,08,01,12,06,21.00
2015,08,01,12,07,21.00
2015,08,01,12,08,20.90
2015,08,01,12,09,20.90
2015,08,01,12,10,20.90
2015,08,01,12,11,21.00
2015,08,01,12,12,21.10
2015,08,01,12,13,21.20
2015,08,01,12,14,21.20
2015,08,01,12,15,21.30
2015,08,01,12,16,21.30
2015,08,01,12,17,21.40
2015,08,01,12,18,21.50
2015,08,01,12,19,21.50
2015,08,01,12,20,21.50
2015,08,01,12,21,21.60
2015,08,01,12,22,21.50
2015,08,01,12,23,21.40
2015,08,01,12,24,21.30
2015,08,01,12,25,21.30
2015,08,01,12,26,21.30
2015,08,01,12,27,21.40
2015,08,01,12,28,21.40
2015,08,01,12,29,21.40
2015,08,01,12,30,21.30
2015,08,01,12,31,21.30
2015,08,01,12,32,21.30
2015,08,01,12,33,21.30
2015,08,01,12,34,21.20
2015,08,01,12,35,21.20
2015,08,01,12,36,21.10
2015,08,01,12,37,21.10
2015,08,01,12,38,21.10
2015,08,01,12,39,21.10
2015,08,01,12,40,21.00
2015,08,01,12,41,20.90
2015,08,01,12,42,20.80
2015,08,01,12,43,20.70
2015,08,01,12,44,20.60
2015,08,01,12,45,20.60
2015,08,01,12,46,20.50
2015,08,01,12,47,20.40
2015,08,01,12,48,20.40
2015,08,01,12,49,20.30
2015,08,01,12,50,20.30
2015,08,01,12,51,20.30
2015,08,01,12,52,20.30
2015,08,01,12,53,20.40
2015,08,01,12,54,20.40
2015,08,01,12,55,20.50
2015,08,01,12,56,20.60
2015,08,01,12,57,20.70
2015,08,01,12,58,20.80
2015,08,01,12,59,20.90
2015,08,01,13,00,21.00
2015,08,01,13,01,21.00
2015,08,01,13,02,21.10
2015,08,01,13,03,21.10
2015,08,01,13,04,21.20
2015,08,01,13,05,21.20
2015,08,01,13,06,21.30
2015,08,01,13,07,21.40
2015,08,01,13,08,21.40
2015,08,01,13,09,21.50
2015,08,01,13,10,21.50
2015,08,01,13,11,21.60
2015,08,01,13,12,21.70
2015,08,01,13,13,21.80
2015,08,01,13,14,21.80
2015,08,01,13,15,21.90
2015,08,01,13,16,21.90
2015,08,01,13,17,22.00
2015,08,01,13,18,22.00
2015,08,01,13,19,22.10
2015,08,01,13,20,22.10
2015,08,01,13,21,22.10
2015,08,01,13,22,22.10
2015,08,01,13,23,22.10
2015,08,01,13,24,22.10
2015,08,01,13,25,22.10
2015,08,01,13,26,22.10
2015,08,01,13,27,22.00
2015,08,01,13,28,22.00
2015,08,01,13,29,22.00
2015,08,01,13,30,22.00
2015,08,01,13,31,22.10
2015,08,01,13,32,22.20
2015,08,01,13,33,22.30
2015,08,01,13,34,22.20
2015,08,01,13,35,22.20
2015,08,01,13,36,22.10
2015,08,01,13,37,22.00
2015,08,01,13,38,22.00
2015,08,01,13,39,21.90
2015,08,01,13,40,21.80
2015,08,01,13,41,21.70
2015,08,01,13,42,21.70
2015,08,01,13,43,21.70
2015,08,01,13,44,21.60
2015,08,01,13,45,21.50
2015,08,01,13,46,21.30
2015,08,01,13,47,21.20
2015,08,01,13,48,21.10
2015,08,01,13,49,21.00
2015,08,01,13,50,21.00
2015,08,01,13,51,21.00
2015,08,01,13,52,21.10
2015,08,01,13,53,21.10
2015,08,01,13,54,21.10
2015,08,01,13,55,21.20
2015,08,01,13,56,21.30
2015,08,01,13,57,21.30
2015,08,01,13,58,21.40
2015,08,01,13,59,21.40
2015,08,01,14,00,21.50
2015,08,01,14,01,21.50
2015,08,01,14,02,21.50
2015,08,01,14,03,21.50
2015,08,01,14,04,21.50
2015,08,01,14,05,21.50
2015,08,01,14,06,21.50
2015,08,01,14,07,21.50
2015,08,01,14,08,21.60
2015,08,01,14,09,21.70
2015,08,01,14,10,21.80
2015,08,01,14,11,22.00
2015,08,01,14,12,22.10
2015,08,01,14,13,22.30
2015,08,01,14,14,22.40
2015,08,01,14,15,22.60
2015,08,01,14,16,22.60
2015,08,01,14,17,22.70
2015,08,01,14,18,22.80
2015,08,01,14,19,22.90
2015,08,01,14,20,23.00
2015,08,01,14,21,23.10
2015,08,01,14,22,23.10
2015,08,01,14,23,23.20
2015,08,01,14,24,23.30
2015,08,01,14,25,23.40
2015,08,01,14,26,23.50
2015,08,01,14,27,23.60
2015,08,01,14,28,23.70
2015,08,01,14,29,23.60
2015,08,01,14,30,23.60
2015,08,01,14,31,23.60
2015,08,01,14,32,23.60
2015,08,01,14,33,23.60
2015,08,01,14,34,23.60
2015,08,01,14,35,23.70
2015,08,01,14,36,23.60
2015,08,01,14,37,23.50
2015,08,01,14,38,23.40
2015,08,01,14,39,23.30
2015,08,01,14,40,23.20
2015,08,01,14,41,23.10
2015,08,01,14,42,23.00
2015,08,01,14,43,23.00
2015,08,01,14,44,23.00
2015,08,01,14,45,23.00
2015,08,01,14,46,23.10
2015,08,01,14,47,23.20
2015,08,01,14,48,23.20
2015,08,01,14,49,23.30
2015,08,01,14,50,23.40
2015,08,01,14,51,23.50
2015,08,01,14,52,23.50
2015,08,01,14,53,23.60
2015,08,01,14,54,23.70
2015,08,01,14,55,23.80
2015,08,01,14,56,23.80
2015,08,01,14,57,23.80
2015,08,01,14,58,23.80
2015,08,01,14,59,23.80
2015,08,01,15,00,23.90
2015,08,01,15,01,23.90
2015,08,01,15,02,23.90
2015,08,01,15,03,23.80
2015,08,01,15,04,23.80
2015,08,01,15,05,23.80
2015,08,01,15,06,23.80
2015,08,01,15,07,23.70
2015,08,01,15,08,23.60
2015,08,01,15,09,23.50
2015,08,01,15,10,23.30
2015,08,01,15,11,23.20
2015,08,01,15,12,23.10
2015,08,01,15,13,23.00
2015,08,01,15,14,22.90
2015,08,01,15,15,22.80
2015,08,01,15,16,22.80
2015,08,01,15,17,22.80
2015,08,01,15,18,22.90
2015,08,01,15,19,22.90
2015,08,01,15,20,23.00
2015,08,01,15,21,23.10
2015,08,01,15,22,23.20
2015,08,01,15,23,23.30
2015,08,01,15,24,23.30
2015,08,01,15,25,23.30
2015,08,01,15,26,23.40
2015,08,01,15,27,23.50
2015,08,01,15,28,23.50
2015,08,01,15,29,23.60
2015,08,01,15,30,23.60
2015,08,01,15,31,23.60
2015,08,01,15,32,23.70
2015,08,01,15,33,23.70
2015,08,01,15,34,23.70
2015,08,01,15,35,23.60
2015,08,01,15,36,23.60
2015,08,01,15,37,23.50
2015,08,01,15,38,23.50
2015,08,01,15,39,23.40
2015,08,01,15,40,23.40
2015,08,01,15,41,23.40
2015,08,01,15,42,23.40
2015,08,01,15,43,23.40
2015,08,01,15,44,23.30
2015,08,01,15,45,23.20
2015,08,01,15,46,23.10
2015,08,01,15,47,23.10
2015,08,01,15,48,23.00
2015,08,01,15,49,23.00
2015,08,01,15,50,22.90
2015,08,01,15,51,22.80
2015,08,01,15,52,22.80
2015,08,01,15,53,22.70
2015,08,01,15,54,22.70
2015,08,01,15,55,22.70
2015,08,01,15,56,22.70
2015,08,01,15,57,22.70
2015,08,01,15,58,22.70
2015,08,01,15,59,22.70
2015,08,01,16,00,22.70
2015,08,01,16,01,22.70
2015,08,01,16,02,22.70
2015,08,01,16,03,22.70
2015,08,01,16,04,22.60
2015,08,01,16,05,22.40
2015,08,01,16,06,22.20
2015,08,01,16,07,22.00
2015,08,01,16,08,21.80
2015,08,01,16,09,21.70
2015,08,01,16,10,21.60
2015,08,01,16,11,21.50
2015,08,01,16,12,21.40
2015,08,01,16,13,21.40
2015,08,01,16,14,21.30
2015,08,01,16,15,21.30
2015,08,01,16,16,21.30
2015,08,01,16,17,21.20
2015,08,01,16,18,21.10
2015,08,01,16,19,21.10
2015,08,01,16,20,21.00
2015,08,01,16,21,21.00
2015,08,01,16,22,20.90
2015,08,01,16,23,20.90
2015,08,01,16,24,20.90
2015,08,01,16,25,20.90
2015,08,01,16,26,21.00
2015,08,01,16,27,21.00
2015,08,01,16,28,21.00
2015,08,01,16,29,21.10
2015,08,01,16,30,21.10
2015,08,01,16,31,21.20
2015,08,01,16,32,21.30
2015,08,01,16,33,21.40
2015,08,01,16,34,21.60
2015,08,01,16,35,21.80
2015,08,01,16,36,22.00
2015,08,01,16,37,22.20
2015,08,01,16,38,22.30
2015,08,01,16,39,22.40
2015,08,01,16,40,22.40
2015,08,01,16,41,22.40
2015,08,01,16,42,22.40
2015,08,01,16,43,22.50
2015,08,01,16,44,22.60
2015,08,01,16,45,22.70
2015,08,01,16,46,22.80
2015,08,01,16,47,22.90
2015,08,01,16,48,23.00
2015,08,01,16,49,23.10
2015,08,01,16,50,23.20
2015,08,01,16,51,23.10
2015,08,01,16,52,23.20
2015,08,01,16,53,23.20
2015,08,01,16,54,23.30
2015,08,01,16,55,23.30
2015,08,01,16,56,23.40
2015,08,01,16,57,23.50
2015,08,01,16,58,23.60
2015,08,01,16,59,23.70
2015,08,01,17,00,23.80
2015,08,01,17,01,23.90
2015,08,01,17,02,24.00
2015,08,01,17,03,24.00
2015,08,01,17,04,24.10
2015,08,01,17,05,24.10
2015,08,01,17,06,24.10
2015,08,01,17,07,24.20
2015,08,01,17,08,24.30
2015,08,01,17,09,24.30
2015,08,01,17,10,24.40
2015,08,01,17,11,24.50
2015,08,01,17,12,24.50
2015,08,01,17,13,24.50
2015,08,01,17,14,24.40
2015,08,01,17,15,24.30
2015,08,01,17,16,24.30
2015,08,01,17,17,24.10
2015,08,01,17,18,24.00
2015,08,01,17,19,23.80